Location: Berbisdorf
(50.7638°N, 12.9442°E)
Time: 02:02:28
(UTC+00:00)

COSMOS 2428 - Pass Details

Date: 07 June 2020
Orbit: 845 x 858 km, 70.9° (Epoch: 15 July)

Event Time Altitude Azimuth Distance (km) Brightness Sun altitude
Rises 02:07:40 0° 176° (S) 3,395 5.4 -6.4°
Reaches altitude 10° 02:10:20 10° 166° (SSE) 2,463 4.8 -6.1°
Maximum altitude 02:15:15 31° 106° (ESE) 1,435 4.2 -5.6°
Drops below altitude 10° 02:20:10 10° 45° (NE) 2,476 7.1 -5.1°
Sets 02:22:51 0° 36° (NE) 3,416 8.3 -4.8°
